Glasgow, United Kingdom

1:58 PM BST on June 23, 2018 (GMT +0100)
Glasgow

Weather History for EGPF - October, 2017

Change the Weather History Date:

Thursday, October 12, 2017

  Actual Average Record
Temperature  
Mean Temperature 54 °F -  
Max Temperature 60 °F 51 °F 62 °F (2001)
Min Temperature 48 °F 40 °F 30 °F (1997)
Degree Days  
Heating Degree Days 12    
Growing Degree Days 4 (Base 50)    
Moisture  
Dew Point 48 °F    
Average Humidity 83    
Maximum Humidity 94    
Minimum Humidity 72    
Precipitation  
Precipitation 0.00 in - - ()
Sea Level Pressure  
Sea Level Pressure 29.80 in    
Wind  
Wind Speed 14 mph ()    
Max Wind Speed 23 mph    
Max Gust Speed 30 mph    
Visibility 6.0 miles    
Events Rain    
Averages and records for this station are not official NWS values.
T = Trace of Precipitation, MM = Missing Value Source: Averaged Metar Reports

Daily Weather History Graph

Daily Weather History Graph

Search for Another Location

Airport or City:

Astronomy

Oct. 12, 2017 Rise Set
Actual Time 7:42 AM BST 6:24 PM BST
Civil Twilight 7:05 AM BST 7:01 PM BST
Nautical Twilight 6:22 AM BST 7:44 PM BST
Astronomical Twilight 5:39 AM BST 8:27 PM BST
Moon 11:38 PM BST (10/12) 3:20 PM BST (10/12)
Length of Visible Light 11h 56m
Length of Day
10h 41m
Waning Gibbous, 51% of the Moon is Illuminated
Oct 12
Waning Gibbous
Oct 12
Last Quarter
Oct 19
New
Oct 27
First Quarter
Nov 4
Full

Hourly Weather History & Observations

Time (BST) Temp. Dew Point Humidity Pressure Visibility Wind Dir Wind Speed Gust Speed Precip Events Conditions
12:20 AM 48.2 °F 44.6 °F 87% 29.68 in 4.3 mi SW 13.8 mph - N/A Rain Light Rain
12:50 AM 48.2 °F 44.6 °F 87% 29.68 in 6.2 mi SW 12.7 mph - N/A   Partly Cloudy
1:20 AM 48.2 °F 44.6 °F 87% 29.68 in 6.2 mi SW 13.8 mph - N/A   Mostly Cloudy
1:50 AM 48.2 °F 44.6 °F 87% 29.71 in 6.2 mi WSW 17.3 mph - N/A   Partly Cloudy
2:20 AM 50.0 °F 44.6 °F 82% 29.71 in 6.2 mi SW 12.7 mph - N/A   Mostly Cloudy
2:50 AM 50.0 °F 44.6 °F 82% 29.71 in 6.2 mi SW 18.4 mph 29.9 mph N/A   Mostly Cloudy
3:20 AM 48.2 °F 44.6 °F 87% 29.71 in 6.2 mi SW 16.1 mph - N/A   Mostly Cloudy
3:50 AM 50.0 °F 46.4 °F 87% 29.71 in 6.2 mi SW 16.1 mph - N/A   Mostly Cloudy
4:20 AM 48.2 °F 46.4 °F 93% 29.74 in 6.2 mi SW 13.8 mph - N/A Rain Light Rain
4:50 AM 48.2 °F 46.4 °F 93% 29.74 in 6.2 mi SSW 11.5 mph - N/A   Mostly Cloudy
5:20 AM 50.0 °F 46.4 °F 87% 29.74 in 6.2 mi SW 15.0 mph - N/A   Mostly Cloudy
5:50 AM 50.0 °F 44.6 °F 82% 29.77 in 6.2 mi SW 16.1 mph - N/A Rain Light Rain
6:20 AM 50.0 °F 44.6 °F 82% 29.77 in 6.2 mi SW 18.4 mph - N/A   Mostly Cloudy
6:50 AM 50.0 °F 44.6 °F 82% 29.77 in 6.2 mi SW 20.7 mph - N/A   Overcast
7:20 AM 50.0 °F 46.4 °F 87% 29.80 in 5.6 mi WSW 16.1 mph - N/A Rain Light Rain
7:50 AM 50.0 °F 46.4 °F 87% 29.80 in 6.2 mi WSW 18.4 mph - N/A   Scattered Clouds
8:20 AM 50.0 °F 46.4 °F 87% 29.80 in 6.2 mi WSW 17.3 mph - N/A   Unknown
8:50 AM 51.8 °F 46.4 °F 82% 29.80 in 6.2 mi WSW 12.7 mph - N/A   Unknown
9:20 AM 51.8 °F 46.4 °F 82% 29.83 in 6.2 mi WSW 11.5 mph - N/A   Unknown
9:50 AM 51.8 °F 48.2 °F 88% 29.83 in 3.1 mi SW 11.5 mph - N/A Rain Light Rain
10:20 AM 51.8 °F 48.2 °F 88% 29.86 in 6.2 mi South 8.1 mph - N/A   Overcast
10:50 AM 51.8 °F 48.2 °F 88% 29.86 in 6.2 mi SW 12.7 mph - N/A   Overcast
11:20 AM 53.6 °F 48.2 °F 82% 29.86 in 6.2 mi SW 20.7 mph - N/A   Mostly Cloudy
11:50 AM 55.4 °F 48.2 °F 77% 29.89 in 6.2 mi SW 19.6 mph - N/A   Mostly Cloudy
12:20 PM 55.4 °F 50.0 °F 82% 29.89 in 6.2 mi SW 20.7 mph - N/A   Mostly Cloudy
12:50 PM 55.4 °F 48.2 °F 77% 29.89 in 6.2 mi SW 21.9 mph - N/A   Mostly Cloudy
1:20 PM 53.6 °F 48.2 °F 82% 29.89 in 6.2 mi SW 20.7 mph - N/A   Partly Cloudy
1:50 PM 55.4 °F 48.2 °F 77% 29.89 in 6.2 mi SW 18.4 mph - N/A   Mostly Cloudy
2:20 PM 55.4 °F 48.2 °F 77% 29.89 in 6.2 mi SW 19.6 mph - N/A   Mostly Cloudy
2:50 PM 55.4 °F 48.2 °F 77% 29.89 in 6.2 mi SW 23.0 mph - N/A   Partly Cloudy
3:20 PM 57.2 °F 48.2 °F 72% 29.89 in 6.2 mi SSW 21.9 mph - N/A   Mostly Cloudy
3:50 PM 55.4 °F 48.2 °F 77% 29.89 in 6.2 mi SW 19.6 mph - N/A   Mostly Cloudy
4:20 PM 55.4 °F 48.2 °F 77% 29.89 in 6.2 mi SSW 15.0 mph - N/A   Overcast
4:50 PM 55.4 °F 48.2 °F 77% 29.86 in 6.2 mi SSW 15.0 mph - N/A   Mostly Cloudy
5:20 PM 55.4 °F 48.2 °F 77% 29.86 in 6.2 mi South 16.1 mph - N/A   Overcast
5:50 PM 55.4 °F 48.2 °F 77% 29.86 in 6.2 mi South 11.5 mph - N/A   Overcast
6:20 PM 55.4 °F 46.4 °F 72% 29.86 in 6.2 mi South 13.8 mph - N/A   Mostly Cloudy
6:50 PM 55.4 °F 48.2 °F 77% 29.83 in 6.2 mi South 13.8 mph - N/A   Mostly Cloudy
7:20 PM 55.4 °F 48.2 °F 77% 29.83 in 6.2 mi SSE 9.2 mph - N/A   Mostly Cloudy
7:50 PM 55.4 °F 48.2 °F 77% 29.83 in 6.2 mi SE 5.8 mph - N/A Rain Light Rain
8:20 PM 53.6 °F 50.0 °F 88% 29.83 in 4.3 mi South 5.8 mph - N/A Rain Light Rain
8:50 PM 55.4 °F 51.8 °F 88% 29.80 in 6.2 mi South 9.2 mph - N/A Rain Light Rain
9:20 PM 55.4 °F 51.8 °F 88% 29.80 in 6.2 mi SSW 13.8 mph - N/A Rain Light Rain
9:50 PM 57.2 °F 51.8 °F 82% 29.77 in 6.2 mi South 15.0 mph - N/A   Overcast
10:20 PM 57.2 °F 53.6 °F 88% 29.77 in 3.7 mi SSW 13.8 mph - N/A Rain Light Rain
10:50 PM 57.2 °F 55.4 °F 94% 29.77 in 5.0 mi South 11.5 mph - N/A Rain Light Rain
11:20 PM 59.0 °F 55.4 °F 88% 29.74 in 6.2 mi SSW 17.3 mph - N/A   Overcast
11:50 PM 60.8 °F 57.2 °F 88% 29.74 in 6.2 mi SSW 16.1 mph - N/A   Overcast